Location: Dalton Gardens
(47.7327°N, 116.7697°W)
Time: 05:43:05
(UTC+00:00)

BlueWalker 3 - Pass Details

Date: 08 December 2022
Orbit: 499 x 517 km, 53.2° (Epoch: 28 January)

Event Time Altitude Azimuth Distance (km) Brightness Sun altitude
Rises 01:33:23 0° 297° (WNW) 2,633 6.3 -15.7°
Reaches altitude 10° 01:35:36 10° 300° (WNW) 1,740 5.3 -16.1°
Maximum altitude 01:39:31 67° 23° (NNE) 557 1.9 -16.7°
Enters shadow 01:40:57 36° 95° (E) 817 2.5 -16.9°
